Time,TemperatureF,DewpointF,PressureIn,WindDirection,WindDirectionDegrees,WindSpeedMPH,WindSpeedGustMPH,Humidity,HourlyPrecipIn,Conditions,Clouds,dailyrainin,SoftwareType,DateUTC
2013-01-08 00:00:00,28.6,7.9,29.50,NE,50,0.0,0.0,41,0.00,,,0.00,VWS V14.01,2013-01-08 05:00:00,
2013-01-08 00:04:00,28.4,7.7,29.50,NE,49,0.0,0.0,41,0.00,,,0.00,VWS V14.01,2013-01-08 05:04:00,
2013-01-08 00:06:00,28.4,7.7,29.50,NE,50,0.0,0.0,41,0.00,,,0.00,VWS V14.01,2013-01-08 05:06:00,
2013-01-08 00:11:00,28.2,7.6,29.50,NE,49,0.0,0.0,41,0.00,,,0.00,VWS V14.01,2013-01-08 05:11:00,
2013-01-08 00:12:00,28.2,7.6,29.50,NE,50,0.0,0.0,41,0.00,,,0.00,VWS V14.01,2013-01-08 05:12:00,
2013-01-08 00:18:00,28.4,7.7,29.50,NE,49,0.0,0.0,41,0.00,,,0.00,VWS V14.01,2013-01-08 05:18:00,
2013-01-08 00:24:00,28.6,7.9,29.50,NE,50,0.0,0.0,41,0.00,,,0.00,VWS V14.01,2013-01-08 05:24:00,
2013-01-08 00:29:00,28.9,8.2,29.50,NE,50,0.0,0.0,41,0.00,,,0.00,VWS V14.01,2013-01-08 05:29:00,
2013-01-08 00:35:00,28.9,7.1,29.50,NE,50,0.0,4.0,39,0.00,,,0.00,VWS V14.01,2013-01-08 05:35:00,
2013-01-08 00:40:00,29.1,6.7,29.50,NE,50,0.0,3.6,38,0.00,,,0.00,VWS V14.01,2013-01-08 05:40:00,
2013-01-08 00:46:00,29.1,6.7,29.50,NE,49,0.0,2.7,38,0.00,,,0.00,VWS V14.01,2013-01-08 05:46:00,
2013-01-08 00:51:00,29.1,6.7,29.50,NE,49,2.7,2.7,38,0.00,,,0.00,VWS V14.01,2013-01-08 05:51:00,
2013-01-08 00:57:00,29.3,6.9,29.50,NE,49,3.1,4.5,38,0.00,,,0.00,VWS V14.01,2013-01-08 05:57:00,
2013-01-08 01:03:00,29.3,7.4,29.50,NE,50,0.0,0.0,39,0.00,,,0.00,VWS V14.01,2013-01-08 06:03:00,
2013-01-08 01:08:00,29.3,7.4,29.50,North,0,0.0,0.0,39,0.00,,,0.00,VWS V14.01,2013-01-08 06:08:00,
2013-01-08 01:14:00,29.3,7.4,29.50,North,0,0.0,0.0,39,0.00,,,0.00,VWS V14.01,2013-01-08 06:14:00,
2013-01-08 01:19:00,29.3,7.4,29.50,North,0,0.0,0.0,39,0.00,,,0.00,VWS V14.01,2013-01-08 06:19:00,
2013-01-08 01:24:00,29.1,7.8,29.50,North,356,0.0,0.0,40,0.00,,,0.00,VWS V14.01,2013-01-08 06:24:00,
2013-01-08 01:30:00,29.1,7.8,29.50,North,0,0.0,0.0,40,0.00,,,0.00,VWS V14.01,2013-01-08 06:30:00,
2013-01-08 01:36:00,29.3,8.0,29.50,North,356,0.0,0.0,40,0.00,,,0.00,VWS V14.01,2013-01-08 06:36:00,
2013-01-08 01:41:00,29.3,8.0,29.50,North,0,0.0,0.0,40,0.00,,,0.00,VWS V14.01,2013-01-08 06:41:00,
2013-01-08 01:47:00,29.3,8.5,29.50,NE,41,0.0,0.0,41,0.00,,,0.00,VWS V14.01,2013-01-08 06:47:00,
2013-01-08 01:53:00,29.3,8.5,29.50,NE,41,0.0,0.0,41,0.00,,,0.00,VWS V14.01,2013-01-08 06:53:00,
2013-01-08 02:05:00,29.1,8.4,29.50,NE,41,0.0,0.0,41,0.00,,,0.00,VWS V14.01,2013-01-08 07:05:00,
2013-01-08 02:16:00,29.1,8.4,29.50,NE,41,0.0,0.0,41,0.00,,,0.00,VWS V14.01,2013-01-08 07:16:00,
2013-01-08 02:26:00,28.9,8.7,29.50,NE,41,0.0,0.0,42,0.00,,,0.00,VWS V14.01,2013-01-08 07:26:00,
2013-01-08 02:31:00,28.9,8.7,29.50,NE,41,0.0,0.0,42,0.00,,,0.00,VWS V14.01,2013-01-08 07:31:00,
2013-01-08 02:37:00,28.9,8.7,29.50,NE,41,0.0,0.0,42,0.00,,,0.00,VWS V14.01,2013-01-08 07:37:00,
2013-01-08 02:42:00,28.8,8.6,29.50,NE,42,0.0,0.0,42,0.00,,,0.00,VWS V14.01,2013-01-08 07:42:00,
2013-01-08 02:48:00,28.8,8.6,29.47,NE,41,0.0,0.0,42,0.00,,,0.00,VWS V14.01,2013-01-08 07:48:00,
2013-01-08 02:54:00,28.6,8.4,29.47,NE,41,0.0,0.0,42,0.00,,,0.00,VWS V14.01,2013-01-08 07:54:00,
2013-01-08 02:59:00,28.6,8.9,29.47,NE,41,0.0,0.0,43,0.00,,,0.00,VWS V14.01,2013-01-08 07:59:00,
2013-01-08 03:05:00,28.4,8.8,29.47,NE,41,0.0,0.0,43,0.00,,,0.00,VWS V14.01,2013-01-08 08:05:00,
2013-01-08 03:10:00,28.4,8.8,29.47,NE,41,0.0,0.0,43,0.00,,,0.00,VWS V14.01,2013-01-08 08:10:00,
2013-01-08 03:16:00,28.4,8.8,29.47,NE,41,0.0,0.0,43,0.00,,,0.00,VWS V14.01,2013-01-08 08:16:00,
2013-01-08 03:21:00,28.2,8.6,29.47,NE,41,0.0,0.0,43,0.00,,,0.00,VWS V14.01,2013-01-08 08:21:00,
2013-01-08 03:27:00,28.2,8.6,29.47,NE,41,0.0,0.0,43,0.00,,,0.00,VWS V14.01,2013-01-08 08:27:00,
2013-01-08 03:32:00,28.0,8.4,29.47,NE,41,0.0,0.0,43,0.00,,,0.00,VWS V14.01,2013-01-08 08:32:00,
2013-01-08 03:38:00,28.0,8.4,29.47,NE,42,0.0,0.0,43,0.00,,,0.00,VWS V14.01,2013-01-08 08:38:00,
2013-01-08 03:44:00,28.2,9.1,29.47,NE,36,0.0,3.6,44,0.00,,,0.00,VWS V14.01,2013-01-08 08:44:00,
2013-01-08 03:49:00,28.2,9.1,29.47,ENE,71,0.0,0.0,44,0.00,,,0.00,VWS V14.01,2013-01-08 08:49:00,
2013-01-08 03:55:00,28.2,9.1,29.47,ENE,71,0.0,0.0,44,0.00,,,0.00,VWS V14.01,2013-01-08 08:55:00,
2013-01-08 04:00:00,28.2,9.1,29.47,ENE,71,0.0,2.7,44,0.00,,,0.00,VWS V14.01,2013-01-08 09:00:00,
2013-01-08 04:06:00,28.0,8.9,29.47,ENE,71,0.0,0.0,44,0.00,,,0.00,VWS V14.01,2013-01-08 09:06:00,
2013-01-08 04:11:00,28.2,9.6,29.47,ENE,72,0.0,0.0,45,0.00,,,0.00,VWS V14.01,2013-01-08 09:11:00,
2013-01-08 04:17:00,28.2,9.6,29.47,ENE,71,0.0,0.0,45,0.00,,,0.00,VWS V14.01,2013-01-08 09:17:00,
2013-01-08 04:22:00,28.2,9.6,29.47,ENE,71,0.0,0.0,45,0.00,,,0.00,VWS V14.01,2013-01-08 09:22:00,
2013-01-08 04:28:00,28.2,9.6,29.47,ENE,71,0.0,0.0,45,0.00,,,0.00,VWS V14.01,2013-01-08 09:28:00,
2013-01-08 04:34:00,28.2,9.6,29.47,ENE,71,0.0,0.0,45,0.00,,,0.00,VWS V14.01,2013-01-08 09:34:00,
2013-01-08 04:39:00,28.0,9.4,29.47,ENE,71,0.0,0.0,45,0.00,,,0.00,VWS V14.01,2013-01-08 09:39:00,
2013-01-08 04:45:00,28.0,9.4,29.47,ENE,71,0.0,0.0,45,0.00,,,0.00,VWS V14.01,2013-01-08 09:45:00,
2013-01-08 04:50:00,28.0,9.4,29.47,ENE,71,0.0,0.0,45,0.00,,,0.00,VWS V14.01,2013-01-08 09:50:00,
2013-01-08 04:56:00,28.0,9.9,29.47,ENE,71,0.0,0.0,46,0.00,,,0.00,VWS V14.01,2013-01-08 09:56:00,
2013-01-08 05:01:00,27.9,9.8,29.50,ENE,71,0.0,0.0,46,0.00,,,0.00,VWS V14.01,2013-01-08 10:01:00,
2013-01-08 05:07:00,27.9,9.8,29.50,ENE,71,0.0,0.0,46,0.00,,,0.00,VWS V14.01,2013-01-08 10:07:00,
2013-01-08 05:12:00,27.9,9.8,29.50,WSW,238,0.0,4.0,46,0.00,,,0.00,VWS V14.01,2013-01-08 10:12:00,
2013-01-08 05:18:00,27.9,10.3,29.50,ESE,120,0.0,0.0,47,0.00,,,0.00,VWS V14.01,2013-01-08 10:18:00,
2013-01-08 05:24:00,27.9,10.3,29.50,East,81,0.0,0.0,47,0.00,,,0.00,VWS V14.01,2013-01-08 10:24:00,
2013-01-08 05:29:00,27.9,10.3,29.50,East,81,0.0,0.0,47,0.00,,,0.00,VWS V14.01,2013-01-08 10:29:00,
2013-01-08 05:35:00,27.9,10.7,29.50,East,80,0.0,0.0,48,0.00,,,0.00,VWS V14.01,2013-01-08 10:35:00,
2013-01-08 05:40:00,27.9,10.7,29.50,East,81,0.0,0.0,48,0.00,,,0.00,VWS V14.01,2013-01-08 10:40:00,
2013-01-08 05:46:00,27.7,10.6,29.50,East,81,0.0,0.0,48,0.00,,,0.00,VWS V14.01,2013-01-08 10:46:00,
2013-01-08 05:51:00,27.7,10.6,29.50,East,81,0.0,0.0,48,0.00,,,0.00,VWS V14.01,2013-01-08 10:51:00,
2013-01-08 05:57:00,27.5,10.9,29.50,East,93,0.0,0.0,49,0.00,,,0.00,VWS V14.01,2013-01-08 10:57:00,
2013-01-08 06:02:00,27.3,10.7,29.50,East,94,0.0,0.0,49,0.00,,,0.00,VWS V14.01,2013-01-08 11:02:00,
2013-01-08 06:08:00,27.3,10.7,29.50,East,93,0.0,0.0,49,0.00,,,0.00,VWS V14.01,2013-01-08 11:08:00,
2013-01-08 06:13:00,27.3,10.7,29.50,East,94,0.0,0.0,49,0.00,,,0.00,VWS V14.01,2013-01-08 11:13:00,
2013-01-08 06:19:00,27.5,10.9,29.50,East,94,0.0,0.0,49,0.00,,,0.00,VWS V14.01,2013-01-08 11:19:00,
2013-01-08 06:25:00,27.5,10.9,29.50,East,94,0.0,0.0,49,0.00,,,0.00,VWS V14.01,2013-01-08 11:25:00,
2013-01-08 06:30:00,27.5,11.3,29.50,East,94,0.0,0.0,50,0.00,,,0.00,VWS V14.01,2013-01-08 11:30:00,
2013-01-08 06:36:00,27.5,11.8,29.50,East,94,0.0,0.0,51,0.00,,,0.00,VWS V14.01,2013-01-08 11:36:00,
2013-01-08 06:41:00,27.5,11.8,29.50,East,94,0.0,0.0,51,0.00,,,0.00,VWS V14.01,2013-01-08 11:41:00,
2013-01-08 06:47:00,27.3,11.6,29.50,East,93,0.0,0.0,51,0.00,,,0.00,VWS V14.01,2013-01-08 11:47:00,
2013-01-08 06:52:00,27.3,11.6,29.50,East,94,0.0,0.0,51,0.00,,,0.00,VWS V14.01,2013-01-08 11:52:00,
2013-01-08 06:58:00,27.1,11.4,29.50,East,94,0.0,0.0,51,0.00,,,0.00,VWS V14.01,2013-01-08 11:58:00,
2013-01-08 07:03:00,27.1,11.4,29.50,East,94,0.0,0.0,51,0.00,,,0.00,VWS V14.01,2013-01-08 12:03:00,
2013-01-08 07:09:00,27.1,11.4,29.50,East,94,0.0,0.0,51,0.00,,,0.00,VWS V14.01,2013-01-08 12:09:00,
2013-01-08 07:15:00,27.1,11.9,29.53,East,94,0.0,0.0,52,0.00,,,0.00,VWS V14.01,2013-01-08 12:15:00,
2013-01-08 07:20:00,27.1,11.9,29.53,East,94,0.0,0.0,52,0.00,,,0.00,VWS V14.01,2013-01-08 12:20:00,
2013-01-08 07:26:00,27.1,11.9,29.53,East,94,0.0,0.0,52,0.00,,,0.00,VWS V14.01,2013-01-08 12:26:00,
2013-01-08 07:31:00,27.3,12.0,29.53,East,94,0.0,0.0,52,0.00,,,0.00,VWS V14.01,2013-01-08 12:31:00,
2013-01-08 07:37:00,27.3,12.0,29.53,East,94,0.0,0.0,52,0.00,,,0.00,VWS V14.01,2013-01-08 12:37:00,
2013-01-08 07:42:00,27.5,12.2,29.53,East,93,0.0,0.0,52,0.00,,,0.00,VWS V14.01,2013-01-08 12:42:00,
2013-01-08 07:48:00,27.7,12.4,29.53,East,93,0.0,0.0,52,0.00,,,0.00,VWS V14.01,2013-01-08 12:48:00,
2013-01-08 07:54:00,28.0,12.7,29.53,East,94,0.0,0.0,52,0.00,,,0.00,VWS V14.01,2013-01-08 12:54:00,
2013-01-08 07:59:00,28.4,13.0,29.53,East,94,0.0,0.0,52,0.00,,,0.00,VWS V14.01,2013-01-08 12:59:00,
2013-01-08 08:05:00,28.8,13.8,29.53,East,94,0.0,0.0,53,0.00,,,0.00,VWS V14.01,2013-01-08 13:05:00,
2013-01-08 08:10:00,29.1,14.1,29.53,East,94,0.0,0.0,53,0.00,,,0.00,VWS V14.01,2013-01-08 13:10:00,
2013-01-08 08:16:00,29.5,14.0,29.53,East,93,0.0,0.0,52,0.00,,,0.00,VWS V14.01,2013-01-08 13:16:00,
2013-01-08 08:21:00,29.8,14.4,29.53,East,94,0.0,0.0,52,0.00,,,0.00,VWS V14.01,2013-01-08 13:21:00,
2013-01-08 08:27:00,30.2,14.7,29.53,East,94,0.0,0.0,52,0.00,,,0.00,VWS V14.01,2013-01-08 13:27:00,
2013-01-08 08:32:00,30.7,15.2,29.53,East,94,0.0,0.0,52,0.00,,,0.00,VWS V14.01,2013-01-08 13:32:00,
2013-01-08 08:38:00,31.5,15.4,29.53,South,189,0.0,4.0,51,0.00,,,0.00,VWS V14.01,2013-01-08 13:38:00,
2013-01-08 08:44:00,32.4,16.3,29.53,South,172,0.0,3.6,51,0.00,,,0.00,VWS V14.01,2013-01-08 13:44:00,
2013-01-08 08:49:00,32.7,15.7,29.53,WSW,237,3.6,3.6,49,0.00,,,0.00,VWS V14.01,2013-01-08 13:49:00,
2013-01-08 08:55:00,33.3,15.2,29.53,SSE,168,0.0,0.0,47,0.00,,,0.00,VWS V14.01,2013-01-08 13:55:00,
2013-01-08 09:00:00,33.4,14.9,29.53,South,179,3.1,3.1,46,0.00,,,0.00,VWS V14.01,2013-01-08 14:00:00,
2013-01-08 09:06:00,33.8,14.7,29.53,East,80,2.7,3.6,45,0.00,,,0.00,VWS V14.01,2013-01-08 14:06:00,
2013-01-08 09:11:00,34.0,14.4,29.53,ESE,114,0.0,0.0,44,0.00,,,0.00,VWS V14.01,2013-01-08 14:11:00,
2013-01-08 09:17:00,34.3,13.6,29.53,ESE,123,0.0,0.0,42,0.00,,,0.00,VWS V14.01,2013-01-08 14:17:00,
2013-01-08 09:22:00,34.7,14.0,29.53,South,177,0.0,4.0,42,0.00,,,0.00,VWS V14.01,2013-01-08 14:22:00,
2013-01-08 09:28:00,34.9,13.6,29.53,West,262,0.0,0.0,41,0.00,,,0.00,VWS V14.01,2013-01-08 14:28:00,
2013-01-08 09:34:00,35.2,13.4,29.53,SW,225,3.6,4.0,40,0.00,,,0.00,VWS V14.01,2013-01-08 14:34:00,
2013-01-08 09:39:00,35.6,13.7,29.53,WSW,242,0.0,3.1,40,0.00,,,0.00,VWS V14.01,2013-01-08 14:39:00,
2013-01-08 09:45:00,35.8,13.8,29.53,West,268,0.0,3.6,40,0.00,,,0.00,VWS V14.01,2013-01-08 14:45:00,
2013-01-08 09:50:00,36.0,13.4,29.53,ESE,118,4.9,4.9,39,0.00,,,0.00,VWS V14.01,2013-01-08 14:50:00,
2013-01-08 09:56:00,36.3,13.8,29.53,SSE,162,0.0,0.0,39,0.00,,,0.00,VWS V14.01,2013-01-08 14:56:00,
2013-01-08 10:01:00,36.5,12.7,29.53,ESE,108,0.0,0.0,37,0.00,,,0.00,VWS V14.01,2013-01-08 15:01:00,
2013-01-08 10:07:00,36.5,11.5,29.53,East,87,0.0,2.7,35,0.00,,,0.00,VWS V14.01,2013-01-08 15:07:00,
2013-01-08 10:12:00,36.9,11.8,29.53,East,94,4.0,4.0,35,0.00,,,0.00,VWS V14.01,2013-01-08 15:12:00,
2013-01-08 10:18:00,36.7,10.3,29.53,NNW,335,0.0,4.0,33,0.00,,,0.00,VWS V14.01,2013-01-08 15:18:00,
2013-01-08 10:24:00,36.9,10.5,29.53,ESE,106,0.0,3.1,33,0.00,,,0.00,VWS V14.01,2013-01-08 15:24:00,
2013-01-08 10:29:00,37.0,10.6,29.53,SW,234,3.1,4.0,33,0.00,,,0.00,VWS V14.01,2013-01-08 15:29:00,
2013-01-08 10:34:00,37.4,10.9,29.53,SSW,194,0.0,0.0,33,0.00,,,0.00,VWS V14.01,2013-01-08 15:34:00,
2013-01-08 10:40:00,37.6,11.1,29.53,WNW,288,2.7,3.6,33,0.00,,,0.00,VWS V14.01,2013-01-08 15:40:00,
2013-01-08 10:46:00,37.8,10.6,29.53,NNE,13,0.0,5.4,32,0.00,,,0.00,VWS V14.01,2013-01-08 15:46:00,
2013-01-08 10:51:00,37.9,10.7,29.53,ENE,63,3.1,3.1,32,0.00,,,0.00,VWS V14.01,2013-01-08 15:51:00,
2013-01-08 10:57:00,38.1,10.9,29.53,SSE,159,0.0,2.7,32,0.00,,,0.00,VWS V14.01,2013-01-08 15:57:00,
2013-01-08 11:02:00,38.3,11.0,29.50,SW,225,0.0,0.0,32,0.00,,,0.00,VWS V14.01,2013-01-08 16:02:00,
2013-01-08 11:08:00,38.5,10.5,29.50,NNW,337,4.0,4.9,31,0.00,,,0.00,VWS V14.01,2013-01-08 16:08:00,
2013-01-08 11:13:00,38.7,10.6,29.50,SSW,192,0.0,4.0,31,0.00,,,0.00,VWS V14.01,2013-01-08 16:13:00,
2013-01-08 11:19:00,38.7,10.6,29.50,SW,219,0.0,0.0,31,0.00,,,0.00,VWS V14.01,2013-01-08 16:19:00,
2013-01-08 11:25:00,38.8,10.8,29.50,WSW,245,0.0,0.0,31,0.00,,,0.00,VWS V14.01,2013-01-08 16:25:00,
2013-01-08 11:30:00,39.0,11.0,29.50,WSW,254,3.1,4.5,31,0.00,,,0.00,VWS V14.01,2013-01-08 16:30:00,
2013-01-08 11:36:00,39.2,10.4,29.50,WNW,293,0.0,3.1,30,0.00,,,0.00,VWS V14.01,2013-01-08 16:36:00,
2013-01-08 11:41:00,39.4,10.5,29.50,South,181,0.0,0.0,30,0.00,,,0.00,VWS V14.01,2013-01-08 16:41:00,
2013-01-08 11:47:00,39.6,10.7,29.50,South,170,0.0,2.7,30,0.00,,,0.00,VWS V14.01,2013-01-08 16:47:00,
2013-01-08 11:52:00,39.9,11.0,29.50,SSE,163,0.0,3.1,30,0.00,,,0.00,VWS V14.01,2013-01-08 16:52:00,
2013-01-08 11:58:00,40.1,10.4,29.50,ENE,58,0.0,0.0,29,0.00,,,0.00,VWS V14.01,2013-01-08 16:58:00,
2013-01-08 12:04:00,40.3,10.6,29.50,NNW,328,0.0,3.1,29,0.00,,,0.00,VWS V14.01,2013-01-08 17:04:00,
2013-01-08 12:09:00,40.6,10.9,29.50,NNW,327,0.0,3.6,29,0.00,,,0.00,VWS V14.01,2013-01-08 17:09:00,
2013-01-08 12:15:00,40.8,11.0,29.47,NNW,329,3.1,3.1,29,0.00,,,0.00,VWS V14.01,2013-01-08 17:15:00,
2013-01-08 12:20:00,41.0,11.2,29.47,East,93,2.7,4.5,29,0.00,,,0.00,VWS V14.01,2013-01-08 17:20:00,
2013-01-08 12:26:00,41.4,11.5,29.47,WNW,293,2.7,4.0,29,0.00,,,0.00,VWS V14.01,2013-01-08 17:26:00,
2013-01-08 12:31:00,41.5,11.7,29.47,WNW,296,0.0,0.0,29,0.00,,,0.00,VWS V14.01,2013-01-08 17:31:00,
2013-01-08 12:37:00,41.5,11.7,29.47,NNE,26,0.0,3.1,29,0.00,,,0.00,VWS V14.01,2013-01-08 17:37:00,
2013-01-08 12:42:00,41.5,11.7,29.47,ENE,60,0.0,2.7,29,0.00,,,0.00,VWS V14.01,2013-01-08 17:42:00,
2013-01-08 12:48:00,41.5,11.7,29.47,South,180,0.0,0.0,29,0.00,,,0.00,VWS V14.01,2013-01-08 17:48:00,
2013-01-08 12:53:00,41.5,11.7,29.47,North,11,0.0,0.0,29,0.00,,,0.00,VWS V14.01,2013-01-08 17:53:00,
2013-01-08 12:59:00,41.2,11.4,29.47,North,6,4.5,4.5,29,0.00,,,0.00,VWS V14.01,2013-01-08 17:59:00,
2013-01-08 13:05:00,41.0,11.2,29.47,NW,325,0.0,0.0,29,0.00,,,0.00,VWS V14.01,2013-01-08 18:05:00,
2013-01-08 13:10:00,41.0,11.2,29.47,East,101,0.0,4.0,29,0.00,,,0.00,VWS V14.01,2013-01-08 18:10:00,
2013-01-08 13:16:00,41.0,11.2,29.47,NE,47,0.0,0.0,29,0.00,,,0.00,VWS V14.01,2013-01-08 18:16:00,
2013-01-08 13:21:00,40.8,11.0,29.47,North,4,0.0,0.0,29,0.00,,,0.00,VWS V14.01,2013-01-08 18:21:00,
2013-01-08 13:27:00,40.8,11.0,29.47,NE,39,0.0,0.0,29,0.00,,,0.00,VWS V14.01,2013-01-08 18:27:00,
2013-01-08 13:32:00,40.6,10.9,29.47,NE,44,2.7,4.0,29,0.00,,,0.00,VWS V14.01,2013-01-08 18:32:00,
2013-01-08 13:38:00,40.6,10.9,29.47,NE,47,0.0,0.0,29,0.00,,,0.00,VWS V14.01,2013-01-08 18:38:00,
2013-01-08 13:43:00,40.6,10.9,29.47,NE,47,0.0,0.0,29,0.00,,,0.00,VWS V14.01,2013-01-08 18:43:00,
2013-01-08 13:49:00,40.5,10.7,29.47,NW,314,0.0,0.0,29,0.00,,,0.00,VWS V14.01,2013-01-08 18:49:00,
2013-01-08 13:55:00,40.5,10.7,29.47,NE,45,0.0,0.0,29,0.00,,,0.00,VWS V14.01,2013-01-08 18:55:00,
2013-01-08 14:00:00,40.6,10.9,29.47,East,94,0.0,3.6,29,0.00,,,0.00,VWS V14.01,2013-01-08 19:00:00,
2013-01-08 14:06:00,40.6,10.9,29.47,West,274,0.0,0.0,29,0.00,,,0.00,VWS V14.01,2013-01-08 19:06:00,
2013-01-08 14:11:00,40.5,10.7,29.47,North,7,0.0,2.7,29,0.00,,,0.00,VWS V14.01,2013-01-08 19:11:00,
2013-01-08 14:17:00,40.5,10.7,29.47,West,272,0.0,0.0,29,0.00,,,0.00,VWS V14.01,2013-01-08 19:17:00,
2013-01-08 14:22:00,40.5,10.7,29.47,ESE,112,0.0,0.0,29,0.00,,,0.00,VWS V14.01,2013-01-08 19:22:00,
2013-01-08 14:28:00,40.5,10.7,29.47,SE,143,0.0,2.7,29,0.00,,,0.00,VWS V14.01,2013-01-08 19:28:00,
2013-01-08 14:33:00,40.3,10.6,29.47,SSW,197,0.0,2.7,29,0.00,,,0.00,VWS V14.01,2013-01-08 19:33:00,
2013-01-08 14:39:00,40.1,11.2,29.47,WSW,242,0.0,0.0,30,0.00,,,0.00,VWS V14.01,2013-01-08 19:39:00,
2013-01-08 14:45:00,40.3,11.3,29.47,WNW,288,0.0,3.1,30,0.00,,,0.00,VWS V14.01,2013-01-08 19:45:00,
2013-01-08 14:50:00,40.3,11.3,29.47,NNW,329,0.0,0.0,30,0.00,,,0.00,VWS V14.01,2013-01-08 19:50:00,
2013-01-08 14:55:00,40.3,11.3,29.47,WSW,250,0.0,0.0,30,0.00,,,0.00,VWS V14.01,2013-01-08 19:55:00,
2013-01-08 15:01:00,40.3,11.3,29.47,West,259,0.0,0.0,30,0.00,,,0.00,VWS V14.01,2013-01-08 20:01:00,
2013-01-08 15:07:00,40.1,11.2,29.47,WSW,244,0.0,0.0,30,0.00,,,0.00,VWS V14.01,2013-01-08 20:07:00,
2013-01-08 15:12:00,39.9,11.0,29.47,West,268,0.0,0.0,30,0.00,,,0.00,VWS V14.01,2013-01-08 20:12:00,
2013-01-08 15:18:00,39.9,11.8,29.47,West,268,0.0,0.0,31,0.00,,,0.00,VWS V14.01,2013-01-08 20:18:00,
2013-01-08 15:23:00,39.7,11.6,29.47,West,268,0.0,0.0,31,0.00,,,0.00,VWS V14.01,2013-01-08 20:23:00,
2013-01-08 15:29:00,39.9,11.8,29.47,WNW,295,0.0,0.0,31,0.00,,,0.00,VWS V14.01,2013-01-08 20:29:00,
2013-01-08 15:35:00,39.9,11.8,29.47,WNW,295,0.0,0.0,31,0.00,,,0.00,VWS V14.01,2013-01-08 20:35:00,
2013-01-08 15:40:00,39.9,11.8,29.47,WNW,295,0.0,0.0,31,0.00,,,0.00,VWS V14.01,2013-01-08 20:40:00,
2013-01-08 15:46:00,39.9,11.8,29.47,NE,35,0.0,2.7,31,0.00,,,0.00,VWS V14.01,2013-01-08 20:46:00,
2013-01-08 15:51:00,39.9,11.8,29.47,NE,35,0.0,0.0,31,0.00,,,0.00,VWS V14.01,2013-01-08 20:51:00,
2013-01-08 15:57:00,39.7,11.6,29.47,NE,35,0.0,0.0,31,0.00,,,0.00,VWS V14.01,2013-01-08 20:57:00,
2013-01-08 16:02:00,39.7,11.6,29.47,NE,35,0.0,0.0,31,0.00,,,0.00,VWS V14.01,2013-01-08 21:02:00,
2013-01-08 16:08:00,39.7,11.6,29.47,NE,35,0.0,0.0,31,0.00,,,0.00,VWS V14.01,2013-01-08 21:08:00,
2013-01-08 16:13:00,39.4,11.3,29.47,NE,35,0.0,0.0,31,0.00,,,0.00,VWS V14.01,2013-01-08 21:13:00,
2013-01-08 16:19:00,39.4,11.3,29.47,North,5,0.0,0.0,31,0.00,,,0.00,VWS V14.01,2013-01-08 21:19:00,
2013-01-08 16:25:00,39.2,11.1,29.47,North,5,0.0,0.0,31,0.00,,,0.00,VWS V14.01,2013-01-08 21:25:00,
2013-01-08 16:30:00,39.0,11.0,29.47,North,5,0.0,0.0,31,0.00,,,0.00,VWS V14.01,2013-01-08 21:30:00,
2013-01-08 16:36:00,38.8,11.5,29.47,North,5,0.0,0.0,32,0.00,,,0.00,VWS V14.01,2013-01-08 21:36:00,
2013-01-08 16:41:00,38.7,11.4,29.47,North,5,0.0,0.0,32,0.00,,,0.00,VWS V14.01,2013-01-08 21:41:00,
2013-01-08 16:47:00,38.5,11.2,29.47,North,5,0.0,0.0,32,0.00,,,0.00,VWS V14.01,2013-01-08 21:47:00,
2013-01-08 16:52:00,38.5,11.9,29.47,North,5,0.0,0.0,33,0.00,,,0.00,VWS V14.01,2013-01-08 21:52:00,
2013-01-08 16:58:00,38.3,11.7,29.47,North,5,0.0,0.0,33,0.00,,,0.00,VWS V14.01,2013-01-08 21:58:00,
2013-01-08 17:03:00,38.1,11.6,29.47,North,5,0.0,0.0,33,0.00,,,0.00,VWS V14.01,2013-01-08 22:03:00,
2013-01-08 17:09:00,38.1,12.2,29.47,North,5,0.0,0.0,34,0.00,,,0.00,VWS V14.01,2013-01-08 22:09:00,
2013-01-08 17:15:00,38.1,12.2,29.47,North,5,0.0,0.0,34,0.00,,,0.00,VWS V14.01,2013-01-08 22:15:00,
2013-01-08 17:20:00,37.9,12.7,29.47,North,5,0.0,0.0,35,0.00,,,0.00,VWS V14.01,2013-01-08 22:20:00,
2013-01-08 17:26:00,37.9,12.7,29.47,North,5,0.0,0.0,35,0.00,,,0.00,VWS V14.01,2013-01-08 22:26:00,
2013-01-08 17:31:00,37.9,12.7,29.50,North,5,0.0,0.0,35,0.00,,,0.00,VWS V14.01,2013-01-08 22:31:00,
2013-01-08 17:37:00,37.8,13.2,29.50,North,5,0.0,0.0,36,0.00,,,0.00,VWS V14.01,2013-01-08 22:37:00,
2013-01-08 17:42:00,37.8,13.2,29.50,North,5,0.0,0.0,36,0.00,,,0.00,VWS V14.01,2013-01-08 22:42:00,
2013-01-08 17:48:00,37.6,13.1,29.50,North,5,0.0,0.0,36,0.00,,,0.00,VWS V14.01,2013-01-08 22:48:00,
2013-01-08 17:53:00,37.6,13.7,29.50,North,5,0.0,0.0,37,0.00,,,0.00,VWS V14.01,2013-01-08 22:53:00,
2013-01-08 17:59:00,37.6,13.7,29.50,North,5,0.0,0.0,37,0.00,,,0.00,VWS V14.01,2013-01-08 22:59:00,
2013-01-08 18:05:00,37.6,14.3,29.50,North,5,0.0,0.0,38,0.00,,,0.00,VWS V14.01,2013-01-08 23:05:00,
2013-01-08 18:10:00,37.6,14.3,29.50,North,5,0.0,0.0,38,0.00,,,0.00,VWS V14.01,2013-01-08 23:10:00,
2013-01-08 18:16:00,37.4,14.7,29.50,North,5,0.0,0.0,39,0.00,,,0.00,VWS V14.01,2013-01-08 23:16:00,
2013-01-08 18:21:00,37.4,14.7,29.50,North,5,0.0,0.0,39,0.00,,,0.00,VWS V14.01,2013-01-08 23:21:00,
2013-01-08 18:27:00,37.4,14.7,29.50,North,5,0.0,0.0,39,0.00,,,0.00,VWS V14.01,2013-01-08 23:27:00,
2013-01-08 18:32:00,37.4,14.7,29.50,North,5,0.0,0.0,39,0.00,,,0.00,VWS V14.01,2013-01-08 23:32:00,
2013-01-08 18:38:00,37.4,14.7,29.50,North,5,0.0,0.0,39,0.00,,,0.00,VWS V14.01,2013-01-08 23:38:00,
2013-01-08 18:43:00,37.4,14.7,29.50,North,5,0.0,0.0,39,0.00,,,0.00,VWS V14.01,2013-01-08 23:43:00,
2013-01-08 18:49:00,37.4,14.7,29.50,NE,55,0.0,0.0,39,0.00,,,0.00,VWS V14.01,2013-01-08 23:49:00,
2013-01-08 18:55:00,37.2,14.6,29.50,NE,55,0.0,0.0,39,0.00,,,0.00,VWS V14.01,2013-01-08 23:55:00,
2013-01-08 19:00:00,37.2,14.6,29.50,NE,55,0.0,0.0,39,0.00,,,0.00,VWS V14.01,2013-01-09 00:00:00,
2013-01-08 19:06:00,37.0,14.4,29.50,NE,55,0.0,0.0,39,0.00,,,0.00,VWS V14.01,2013-01-09 00:06:00,
2013-01-08 19:11:00,36.9,14.2,29.50,NE,55,0.0,0.0,39,0.00,,,0.00,VWS V14.01,2013-01-09 00:11:00,
2013-01-08 19:17:00,36.9,14.2,29.50,NE,55,0.0,0.0,39,0.00,,,0.00,VWS V14.01,2013-01-09 00:17:00,
2013-01-08 19:22:00,36.9,14.2,29.50,NE,55,0.0,0.0,39,0.00,,,0.00,VWS V14.01,2013-01-09 00:22:00,
2013-01-08 19:28:00,36.7,14.1,29.50,NE,55,0.0,0.0,39,0.00,,,0.00,VWS V14.01,2013-01-09 00:28:00,
2013-01-08 19:33:00,36.7,14.1,29.50,NE,55,0.0,0.0,39,0.00,,,0.00,VWS V14.01,2013-01-09 00:33:00,
2013-01-08 19:39:00,36.7,14.1,29.50,NE,55,0.0,0.0,39,0.00,,,0.00,VWS V14.01,2013-01-09 00:39:00,
2013-01-08 19:45:00,36.7,14.6,29.50,NE,55,0.0,0.0,40,0.00,,,0.00,VWS V14.01,2013-01-09 00:45:00,
2013-01-08 19:50:00,36.7,14.6,29.50,NE,55,0.0,0.0,40,0.00,,,0.00,VWS V14.01,2013-01-09 00:50:00,
2013-01-08 19:56:00,36.7,14.6,29.50,NE,55,0.0,0.0,40,0.00,,,0.00,VWS V14.01,2013-01-09 00:56:00,
2013-01-08 20:01:00,36.7,14.6,29.50,NE,55,0.0,0.0,40,0.00,,,0.00,VWS V14.01,2013-01-09 01:01:00,
2013-01-08 20:07:00,36.7,14.6,29.50,NE,55,0.0,0.0,40,0.00,,,0.00,VWS V14.01,2013-01-09 01:07:00,
2013-01-08 20:12:00,36.7,14.6,29.50,NE,55,0.0,0.0,40,0.00,,,0.00,VWS V14.01,2013-01-09 01:12:00,
2013-01-08 20:18:00,36.5,14.5,29.50,NE,55,0.0,0.0,40,0.00,,,0.00,VWS V14.01,2013-01-09 01:18:00,
2013-01-08 20:23:00,36.5,14.5,29.50,NE,55,0.0,0.0,40,0.00,,,0.00,VWS V14.01,2013-01-09 01:23:00,
2013-01-08 20:29:00,36.5,14.5,29.50,NE,55,0.0,0.0,40,0.00,,,0.00,VWS V14.01,2013-01-09 01:29:00,
2013-01-08 20:34:00,36.5,14.5,29.50,NE,55,0.0,0.0,40,0.00,,,0.00,VWS V14.01,2013-01-09 01:34:00,
2013-01-08 20:39:00,36.5,14.5,29.50,NE,55,0.0,0.0,40,0.00,,,0.00,VWS V14.01,2013-01-09 01:39:00,
2013-01-08 20:44:00,36.5,14.5,29.50,NE,55,0.0,0.0,40,0.00,,,0.00,VWS V14.01,2013-01-09 01:44:00,
2013-01-08 20:50:00,36.5,13.9,29.50,NE,55,0.0,0.0,39,0.00,,,0.00,VWS V14.01,2013-01-09 01:50:00,
2013-01-08 20:56:00,36.5,13.9,29.50,NE,55,0.0,0.0,39,0.00,,,0.00,VWS V14.01,2013-01-09 01:56:00,
2013-01-08 21:01:00,36.5,13.9,29.50,NE,55,0.0,0.0,39,0.00,,,0.00,VWS V14.01,2013-01-09 02:01:00,
2013-01-08 21:07:00,36.5,13.9,29.50,NE,55,0.0,0.0,39,0.00,,,0.00,VWS V14.01,2013-01-09 02:07:00,
2013-01-08 21:12:00,36.5,13.9,29.50,NE,55,0.0,0.0,39,0.00,,,0.00,VWS V14.01,2013-01-09 02:12:00,
2013-01-08 21:18:00,36.5,13.9,29.50,NE,55,0.0,0.0,39,0.00,,,0.00,VWS V14.01,2013-01-09 02:18:00,
2013-01-08 21:23:00,36.3,13.8,29.50,NE,55,0.0,0.0,39,0.00,,,0.00,VWS V14.01,2013-01-09 02:23:00,
2013-01-08 21:29:00,36.1,13.6,29.50,NNW,334,0.0,0.0,39,0.00,,,0.00,VWS V14.01,2013-01-09 02:29:00,
2013-01-08 21:35:00,36.0,13.4,29.50,NNW,334,0.0,0.0,39,0.00,,,0.00,VWS V14.01,2013-01-09 02:35:00,
2013-01-08 21:40:00,35.8,13.3,29.50,NNW,334,0.0,0.0,39,0.00,,,0.00,VWS V14.01,2013-01-09 02:40:00,
2013-01-08 21:46:00,35.8,13.8,29.50,NNW,334,0.0,0.0,40,0.00,,,0.00,VWS V14.01,2013-01-09 02:46:00,
2013-01-08 21:51:00,36.0,14.0,29.50,NW,321,0.0,0.0,40,0.00,,,0.00,VWS V14.01,2013-01-09 02:51:00,
2013-01-08 21:56:00,36.0,14.0,29.50,NW,321,0.0,0.0,40,0.00,,,0.00,VWS V14.01,2013-01-09 02:56:00,
2013-01-08 22:01:00,35.8,13.8,29.50,NW,321,0.0,0.0,40,0.00,,,0.00,VWS V14.01,2013-01-09 03:01:00,
2013-01-08 22:06:00,35.6,13.7,29.50,NW,321,0.0,0.0,40,0.00,,,0.00,VWS V14.01,2013-01-09 03:06:00,
2013-01-08 22:12:00,35.4,13.5,29.50,NW,321,0.0,0.0,40,0.00,,,0.00,VWS V14.01,2013-01-09 03:12:00,
2013-01-08 22:18:00,35.4,13.5,29.50,NW,322,0.0,0.0,40,0.00,,,0.00,VWS V14.01,2013-01-09 03:18:00,
2013-01-08 22:23:00,35.6,13.7,29.50,NW,322,0.0,0.0,40,0.00,,,0.00,VWS V14.01,2013-01-09 03:23:00,
2013-01-08 22:29:00,35.6,13.7,29.53,NW,321,0.0,0.0,40,0.00,,,0.00,VWS V14.01,2013-01-09 03:29:00,
2013-01-08 22:35:00,35.6,13.7,29.53,NW,322,0.0,0.0,40,0.00,,,0.00,VWS V14.01,2013-01-09 03:35:00,
2013-01-08 22:40:00,35.4,13.5,29.53,NW,321,0.0,0.0,40,0.00,,,0.00,VWS V14.01,2013-01-09 03:40:00,
2013-01-08 22:46:00,35.2,13.4,29.53,NW,321,0.0,0.0,40,0.00,,,0.00,VWS V14.01,2013-01-09 03:46:00,
2013-01-08 22:51:00,35.2,13.4,29.53,NW,321,0.0,0.0,40,0.00,,,0.00,VWS V14.01,2013-01-09 03:51:00,
2013-01-08 22:57:00,35.1,13.2,29.53,NW,321,0.0,0.0,40,0.00,,,0.00,VWS V14.01,2013-01-09 03:57:00,
2013-01-08 23:02:00,34.9,13.0,29.53,NW,321,0.0,0.0,40,0.00,,,0.00,VWS V14.01,2013-01-09 04:02:00,
2013-01-08 23:08:00,34.5,12.7,29.53,NW,321,0.0,0.0,40,0.00,,,0.00,VWS V14.01,2013-01-09 04:08:00,
2013-01-08 23:13:00,34.5,12.7,29.53,NW,321,0.0,0.0,40,0.00,,,0.00,VWS V14.01,2013-01-09 04:13:00,
2013-01-08 23:19:00,34.5,12.7,29.53,NW,321,0.0,0.0,40,0.00,,,0.00,VWS V14.01,2013-01-09 04:19:00,
2013-01-08 23:25:00,34.5,13.3,29.53,NW,321,0.0,0.0,41,0.00,,,0.00,VWS V14.01,2013-01-09 04:25:00,
2013-01-08 23:30:00,34.5,13.3,29.53,NW,321,0.0,0.0,41,0.00,,,0.00,VWS V14.01,2013-01-09 04:30:00,
2013-01-08 23:36:00,34.7,13.4,29.53,NW,321,0.0,0.0,41,0.00,,,0.00,VWS V14.01,2013-01-09 04:36:00,
2013-01-08 23:41:00,34.5,12.7,29.53,NW,321,0.0,0.0,40,0.00,,,0.00,VWS V14.01,2013-01-09 04:41:00,
2013-01-08 23:47:00,34.5,13.3,29.53,NW,321,0.0,0.0,41,0.00,,,0.00,VWS V14.01,2013-01-09 04:47:00,
2013-01-08 23:52:00,34.3,13.1,29.53,NW,321,0.0,0.0,41,0.00,,,0.00,VWS V14.01,2013-01-09 04:52:00,
2013-01-08 23:58:00,34.2,12.9,29.53,NW,321,0.0,0.0,41,0.00,,,0.00,VWS V14.01,2013-01-09 04:58:00,